Terminal Aerodrome Forecast
Issued by NWS Pueblo, CO

Home | Current Version | Previous Version | Text Only | Print | Product List | Glossary On
Versions: 1 2 3 4 5 6 7 8 9 10 11 12 13 14 15 16 17 18 19 20 21 22 23 24 25 26 27 28 29 30 31 32 33 34 35 36 37 38 39 40 41 42 43 44 45 46 47 48 49 50
147
FTUS45 KPUB 220801 AAA
TAFCOS
TAF AMD
KCOS 220801Z 2208/2306 16008KT P6SM SKC
     FM221500 17012KT P6SM FEW250
     FM221800 19024G34KT P6SM FEW120 SCT250
     FM222100 20026G36KT P6SM SCT120 SCT250
     FM230100 18012KT P6SM BKN120=

USA.gov is the U.S. government's official web portal to all federal, state and local government web resources and services.